www.pogodaiklimat.ru

Погода и климат >> Архив погоды >> Россия >> Нижегородская область >> Павлово


ПОГОДА в Павлово

  • Прогноз погоды в Павлово
  • Монитор погоды в Павлово
  • Климат города

АРХИВ ПОГОДЫ в Павлово

Время (UTC), дата Ветер
(напр.,м/с)
 
Видим.   Явления Облачность Т
(С)
Тd
(С)
f
(%)
Тe
(С)
Тes
(С)
Комфортность P
(гПа)
Po
(гПа)
Тmin
(С)
Tmax
(С)
R
(мм)
R24
(мм)
S
(см)
09 14.06 СЗ 2-4
{6}
50 км 10/10 1000 м
[Sc]
+11.6 +4.5 62 +11 +11 1015.7 999.8
12 14.06 СЗ 2-4
{6}
50 км 8/8 600 м
[Cu med, cong]
+14.8 +4.8 51 +15 +17 1015.5 999.9
15 14.06 С 2-4
{6}
50 км 8/6 1000 м
[Cu hum Ci fib]
+16.7 +5.0 46 +17 +18 1015.5 1000.0 +17.1
18 14.06 СВ 1-3
{4}
50 км 4/0
[Ac trans Ci fib]
+12.4 +5.6 63 +13 +13 1016.4 1000.7
21 14.06 штиль 0
{4}
20 км 3/0
[Ci fib]
+8.9 +5.1 77 +8 +8 1018.0 1002.0
00 15.06 штиль 0
{1}
50 км 6/0
[Ac trans Ci fib]
+6.7 +4.6 86 +6 +6 1019.2 1003.0
03 15.06 штиль 0
{2}
50 км 3/0
[Ac trans Cc]
+7.7 +5.8 88 +7 +9 1020.3 1004.1 +5.9
06 15.06 В 1-3
{4}
50 км 3/0
[Ci fib]
+14.6 +1.9 42 +15 +27 опасность
простуды
1020.4 1004.7
09 15.06 СВ 1-4
{6}
50 км 5/5 600 м
[Cu hum]
+16.2 +3.4 42 +17 +26 1020.3 1004.7
12 15.06 СВ 1-3
{6}
50 км 6/6 600 м
[Cu hum]
+19.1 +4.6 38 +21 +26 комфорт 1019.6 1004.1
15 15.06 С 1-4
{6}
50 км 8/0
[Ac trans Ci fib]
+17.8 +4.3 41 +19 +21 1019.7 1004.1 +19.5
18 15.06 штиль 0
{6}
50 км 4/0
[Ac trans Ci]
+13.8 +5.3 56 +14 +14 1019.7 1003.9
21 15.06 штиль 0
{2}
20 км 3/0
[Ac trans]
+11.3 +5.1 66 +11 +11 1020.0 1004.1
00 16.06 штиль 0
{1}
50 км 9/0
[Ac trans]
+10.5 +6.4 76 +10 +10 1020.2 1004.3
03 16.06 штиль 0
{1}
50 км 6/0
[Ac trans]
+11.5 +7.6 77 +11 +13 1020.8 1004.9 +9.3
06 16.06 СЗ 1-3
{3}
50 км 1/1 600 м
[Cu med, cong]
+18.0 +9.7 58 +19 +30 1020.4 1004.9
09 16.06 СВ 2-6
{7}
50 км 4/4 600 м
[Cu hum]
+20.2 +6.5 41 +22 +31 комфорт 1020.0 1004.6
12 16.06 СВ 2-5
{6}
50 км 3/3 1000 м
[Cu hum]
+21.4 +5.9 36 +22 +30 комфорт 1019.6 1004.2
15 16.06 СВ 2-5
{6}
50 км 1/1 1000 м
[Cu hum]
+21.5 +6.8 39 +22 +25 комфорт 1019.4 1004.0 +22.4
18 16.06 штиль 0
{6}
50 км 1/0
[Ci sp]
+16.4 +7.4 55 +16 +16 1019.8 1004.2
21 16.06 штиль 0
{1}
20 км ясно +12.5 +6.4 66 +12 +12 1020.0 1004.2
00 17.06 штиль 0
{1}
50 км 3/0
[Ci fib]
+11.0 +5.6 69 +11 +11 1020.4 1004.5
03 17.06 З 1-2
{2}
50 км 3/0
[Ci fib]
+13.5 +7.4 67 +14 +16 1020.6 1004.8 +10.2
06 17.06 СЗ 1-3
{3}
50 км 10/0
[Ci fib]
+19.8 +11.1 57 +22 +32 комфорт 1019.8 1004.4
09 17.06 С 2-4
{5}
50 км 10/3 600 м
[Cu hum Ci fib]
+24.3 +8.2 36 +25 +34 комфорт 1018.8 1003.6
12 17.06 С 2-4
{6}
50 км 8/4 600 м
[Cu hum Ci fib]
+26.0 +8.2 32 +26 +32 жарко 1017.2 1002.2
15 17.06 СЗ 2-3
{5}
50 км 8/8 600 м
[Cu hum]
+25.7 +9.0 35 +26 +27 жарко 1016.3 1001.3 +26.3
18 17.06 З 1-1
{4}
50 км 3/0
[Ci fib]
+20.5 +11.9 58 +24 +24 комфорт 1016.6 1001.3
21 17.06 З 1-2
{3}
20 км 3/0
[Ac trans]
+17.6 +10.7 64 +19 +19 1016.5 1001.0
00 18.06 СЗ 1-2
{3}
50 км ясно +14.7 +11.3 80 +15 +15 1016.9 1001.3
03 18.06 СЗ 1-2
{2}
50 км 3/0
[Ac trans]
+15.9 +12.4 80 +17 +19 1016.7 1001.2 +13.9
06 18.06 штиль 0
{3}
50 км ясно +21.8 +14.9 65 +25 +39 комфорт 1015.9 1000.7
09 18.06 СВ 1-4
{6}
50 км 6/6 600 м
[Cu hum]
+26.9 +12.0 40 +28 +36 жарко 1014.8 999.8
12 18.06 З 2-4
{6}
50 км {ливн. осадки} 4/4 600 м
[Cu med, cong]
+24.6 +13.1 49 +27 +33 жарко 1014.5 999.4
15 18.06 З 1-2
{6}
50 км {ливн. осадки} 8/4 600 м
[Cu Sc Ac trans]
+22.8 +16.4 67 +27 +28 душно 1013.8 998.6 +27.5 1
18 18.06 штиль 0
{2}
50 км {ливн. осадки} 1/1 1000 м
[Sc]
+19.8 +14.5 71 +22 +22 комфорт 1013.7 998.4
21 18.06 З 1-2
{3}
20 км 4/3 1000 м
[Sc Ac trans]
+18.0 +14.0 77 +19 +19 1013.7 998.3
00 19.06 штиль 0
{2}
50 км 9/9 1000 м
[Sc]
+16.5 +13.6 83 +16 +16 1013.8 998.3
03 19.06 З 1-2
{2}
50 км 4/1 600 м
[Cu Sc Ac trans Ci fib]
+18.2 +14.2 77 +20 +21 1013.5 998.1 +16.5
06 19.06 СЗ 2-3
{3}
50 км 3/0
[Ci fib]
+23.8 +14.8 57 +27 +36 жарко 1012.7 997.6
09 19.06 З 3-7
{8}
50 км 5/3 600 м
[Cu hum Ci fib]
+26.6 +11.9 40 +28 +37 жарко 1011.6 996.6
12 19.06 З 3-5
{8}
50 км 4/3 600 м
[Cu hum Ci fib]
+28.1 +11.0 34 +29 +35 жарко 1009.4 994.9
15 19.06 З 4-9
{9}
50 км 8/5 600 м
[Cu Sc Ac trans]
+26.2 +12.2 42 +28 +28 жарко 1008.5 993.6 +28.5
18 19.06 штиль 0
{9}
50 км 6/0
[Ac trans]
+21.2 +13.4 61 +24 +24 комфорт 1008.3 993.1
21 19.06 штиль 0
{3}
20 км 8/0
[Ac As]
+18.2 +14.2 77 +18 +18 1007.2 991.9
00 20.06 ЮЗ 1-3
{4}
50 км 10/8 600 м
[Sc As trans]
+16.8 +14.0 84 +18 +18 1005.9 990.5
03 20.06 З 4-8
{8}
50 км 10/8 600 м
[Frnb As trans]
+17.0 +14.0 82 +17 +17 1004.7 989.3 +16.8
06 20.06 З 4-8
{15}
50 км в посл. час ливневой дождь 10/10 600 м
[Cb cap]
+17.0 +11.3 69 +17 +17 1004.6 989.2
09 20.06 З 6-12
{15}
50 км 4/4 600 м
[Cu hum]
+19.2 +6.7 44 +19 +23 1005.4 990.1
12 20.06 З 5-10
{13}
50 км 4/4 600 м
[Cu med, cong]
+20.6 +8.1 45 +22 +25 комфорт 1005.3 990.1
15 20.06 З 4-10
{12}
50 км 8/8 600 м
[Cu med, cong]
+20.0 +5.5 39 +21 +21 комфорт 1005.4 990.2 +22.1 0.0
18 20.06 З 3-6
{10}
50 км 9/9 600 м
[Cb cap]
+15.6 +9.7 68 +15 +15 1006.3 990.8
21 20.06 З 4-7
{8}
20 км ясно +14.5 +6.7 59 +13 +13 1007.1 991.6
00 21.06 З 4-8
{9}
50 км ясно +12.4 +6.8 69 +11 +11 1007.6 992.0
03 21.06 З 5-9
{9}
50 км ясно +13.1 +6.8 66 +11 +12 1008.3 992.6 +12.2

 

Местоположение метеостанции Павлово (Нижегородская область, Россия): широта 55.95 долгота 43.03 высота над уровнем моря 131 м.

В архиве по умолчанию представлена погода в Павлово за последнюю неделю. Архивные данные за месяц целиком и за предыдущие месяцы, начиная с января 2011 года, Вы можете получить, выбрав интересующий диапазон дат из раскрывающегося списка и нажав кнопку "Ввод!".


*Определитесь, кто Вы:
робот инопланетянин человек

Внимание! Время в таблицах - всемирное. Для получения местного времени необходимо прибавить поправку, которая в Павлово равна 3 ч.

Смотрите также архив погоды в соседних городах и на ближайших метеорологических станциях:

Погода в Нижнем Новгороде аэропорт (Нижегородская область, Россия) (55 км)
Погода в Балахне (Нижегородская область, Россия) (59 км)
Погода в Вязниках (Владимирская область, Россия) (60 км)
Погода в Дальнем Константиново (Нижегородская область, Россия) (68 км)
Погода в Нижнем Новгороде (Нижегородская область, Россия) (70 км)
Погода в Муроме (Владимирская область, Россия) (74 км)
Погода в Арзамасе (Нижегородская область, Россия) (80 км)
Погода в Волжской ГМО (Нижегородская область, Россия) (85 км)
Погода в Выксе (Нижегородская область, Россия) (90 км)
Погода в Коврове (Владимирская область, Россия) (114 км)

Пояснения к столбцам:

Ветер - указаны скорость ветра в м/с - средняя за 10 мин, порывы в срок и между сроками (в фигурных скобках) и направление, откуда дует ветер: С - северный, СВ - северо-восточный, В - восточный, ЮВ - юго-восточный, Ю - южный, ЮЗ - юго-западный, З - западный, СЗ - северо-западный.
Видимость - горизонтальная дальность видимости в метрах или километрах. При видимости от 1 до 10 км при отсутствии осадков обычно наблюдается дымка, при ухудшении видимости до 1 км и менее - туман. В сухую погоду видимость может ухудшаться дымом, пылью или мглою.
Явления - указаны атмосферные явления, наблюдавшиеся в срок или в последний час перед сроком; фигурными скобками обозначены явления, наблюдавшиеся между сроками (за 1-3 часа до срока); квадратными скобками обозначены град или гололедные отложения с указанием их диаметра в мм.
Облачность - указаны через наклонную черту общая и нижняя облачность в баллах и высота нижней границы облаков в метрах; квадратными скобками обозначены формы облаков: Ci - перистые, Cs - перисто-слоистые, Cc - перисто-кучевые, Ac - высококучевые, As - высокослоистые, Sc - слоисто-кучевые, Ns - слоисто-дождевые, Cu - кучевые, Cb - кучево-дождевые. Подробнее классификацию облаков см. в Атласе облаков (PDF).
T - Температура воздуха - температура, измеренная на высоте 2 м над землей.
Td - Температура точки росы - температура, при понижении до которой содержащийся в воздухе водяной пар достигнет насыщения.
f - Относительная влажность воздуха - влажноcть воздуха, измеренная на высоте 2 м над землей.
Te - Эффективная температура - температура, которую ощущает одетый по сезону человек в тени. Характеристика душности погоды. При расчете учитывается влияние влажности воздуха и скорости ветра на теплоощущения человека.
Tes - Эффективная температура на солнце - температура, которую ощущает человек, с поправкой на солнечный нагрев. Характеристика знойности погоды. Зависит от высоты солнца над горизонтом, облачности и скорости ветра. Ночью, в пасмурную погоду, а также при ветре 12 м/с и более поправка равна нулю.
P - Атмосферное давление - приведенное к уровню моря атмосферное давление.
Po - Атмосферное давление - измеренное на уровне метеостанции атмосферное давление.
Tmin - Минимальная температура - минимум температуры воздуха на высоте 2 м над землей.
Tmax - Максимальная температура - максимум температуры воздуха на высоте 2 м над землей.
R - Количество осадков - Количество выпавших осадков за период времени, мм. При наведении курсора мыши на число - период времени, за который выпало указанное количество осадков.
R24 - Количество осадков - Количество выпавших осадков за 24 часа, мм.
S - Снежный покров - Высота снежного покрова, см. При наведении курсора мыши на число - состояние снежного покрова и степень покрытия местности в баллах.